Voltar ao catálogo

SATURN 5 R/B

AtivoHEO
NORAD 3627·ROCKET BODY·🇺🇸 United States

Lançado Dec 21, 1968 de Cape Canaveral Space Force Station

Loading…

Próximas Passagens (próximas 24 horas)

TLE

ObsoletoSource: Space-Track

Época: Dec 21, 1968, 15:46 UTC

1 03627U 68118  B 68356.65757754  .00000000 +00000-0 +00000-0 0  9996
2 03627 030.7142 141.9251 9763415 029.5976 000.0400 00.06001781000000

Acompanhe SATURN 5 R/B em tempo real com AllMySat

Download on the App Store